Regional Weather Roundup
Issued by NWS

Home | Current Version | Previous Version | Graphics & Text | Print | Product List | Glossary On
Versions: 1 2 3 4 5 6 7 8 9 10 11 12 13 14 15 16 17 18 19 20 21 22 23 24 25 26 27 28 29 30 31 32 33 34 35 36 37 38 39 40 41 42 43 44 45 46 47 48 49 50
330
ASUS43 KLSX 250157
RWRMO

WEATHER SUMMARY FOR MISSOURI
NATIONAL WEATHER SERVICE SPRINGFIELD MO
900 PM CDT SUN SEP 24 2017

NOTE: "FAIR" INDICATES FEW OR NO CLOUDS BELOW 12,000 FEET WITH NO
       SIGNIFICANT WEATHER AND/OR OBSTRUCTIONS TO VISIBILITY.
       CURRENT SKY AND/OR WEATHER CONDITIONS ARE NOT AVAILABLE FOR
       CHILLICOTHE AND FARMINGTON.

MOZ001>031-035>038-043-044-053-054-250300-
...NORTHERN AND WESTERN MISSOURI...

CITY           SKY/WX    TMP DP  RH WIND       PRES   REMARKS
KANSAS CTY INT CLEAR     75  66  73 SE7       29.93R
LEE`S SUMMIT   CLEAR     80  68  66 S8        29.95R
ST JOSEPH      PTCLDY    72  67  84 CALM      29.92R
CHILLICOTHE      N/A     73  68  84 CALM      29.94R

$$
MOZ066>068-077>081-088>096-101>105-250300-
...SOUTHWEST MISSOURI...

CITY           SKY/WX    TMP DP  RH WIND       PRES   REMARKS
SPRINGFIELD    CLEAR     70  63  78 SE6       29.98R
JOPLIN         CLEAR     77  67  71 SE8       29.95R
BRANSON        PTCLDY    68  68 100 CALM      30.00R

$$
MOZ032>034-039>042-045>050-055>058-069>072-250300-
...CENTRAL MISSOURI...

CITY           SKY/WX    TMP DP  RH WIND       PRES   REMARKS
COLUMBIA       NOT AVBL
JEFFERSON CITY PTCLDY    75  68  78 CALM      29.94S
ROLLA          CLOUDY    76  64  66 SE9       30.00R
SEDALIA        CLEAR     78  69  73 S15       29.98R
WARRENSBURG    CLEAR     73  66  78 SE5       29.94R

$$
MOZ051-052-059>065-250300-
...EAST CENTRAL MISSOURI...

CITY           SKY/WX    TMP DP  RH WIND       PRES   REMARKS
ST LOUIS INTL  PTCLDY    81  63  54 SE6       29.98R

$$
MOZ072>076-082>087-097>100-106>115-250300-
...SOUTH CENTRAL AND SOUTHEAST MISSOURI...

CITY           SKY/WX    TMP DP  RH WIND       PRES   REMARKS
CAPE GIRARDEAU CLOUDY    73  65  75 SE7       29.99R
POPLAR BLUFF   CLEAR     70  67  90 NE3       29.99R
WEST PLAINS    PTCLDY    71  64  78 S6        30.02S

$$



USA.gov is the U.S. government's official web portal to all federal, state and local government web resources and services.